Terminal Aerodrome Forecast
Issued by NWS Omaha/Valley, NE

Home | Current Version | Previous Version | Text Only | Print | Product List | Glossary Off
Versions: 1 2 3 4 5 6 7 8 9 10 11 12 13 14 15 16 17 18 19 20 21 22 23 24 25 26 27 28 29 30 31 32 33 34 35 36 37 38 39 40 41 42 43 44 45 46 47

000
FTUS43 KOAX 062005 AAD
TAFOFK
TAF AMD
KOFK 062005Z 0620/0718 36015G23KT 5SM HZ SCT020 BKN035
      TEMPO 0620/0623 3SM HZ
     FM070000 36013KT 5SM HZ SCT030 BKN250
     FM070400 36007KT P6SM SKC=

USA.gov is the U.S. government's official web portal to all federal, state and local government web resources and services.